TimePDT,TemperatureF,Dew PointF,Humidity,Sea Level PressureIn,VisibilityMPH,Wind Direction,Wind SpeedMPH,Gust SpeedMPH,PrecipitationIn,Events,Conditions,WindDirDegrees,DateUTC
12:56 AM,59.0,34.0,39,29.75,10.0,Calm,Calm,-,N/A,,Clear,0,2013-09-17 07:56:00
1:56 AM,57.0,34.0,42,29.74,10.0,NNW,3.5,-,N/A,,Clear,340,2013-09-17 08:56:00
2:56 AM,57.0,34.0,42,29.72,10.0,NNE,3.5,-,N/A,,Clear,30,2013-09-17 09:56:00
3:56 AM,55.9,34.0,44,29.71,10.0,East,4.6,-,N/A,,Clear,90,2013-09-17 10:56:00
4:56 AM,55.9,34.0,44,29.70,10.0,ENE,3.5,-,N/A,,Clear,60,2013-09-17 11:56:00
5:56 AM,55.9,32.0,40,29.70,10.0,East,9.2,-,N/A,,Clear,100,2013-09-17 12:56:00
6:56 AM,57.0,32.0,39,29.72,10.0,Calm,Calm,-,N/A,,Clear,0,2013-09-17 13:56:00
7:56 AM,62.1,34.0,35,29.72,10.0,North,3.5,-,N/A,,Clear,360,2013-09-17 14:56:00
8:56 AM,70.0,32.0,25,29.70,10.0,South,9.2,-,N/A,,Clear,170,2013-09-17 15:56:00
9:56 AM,73.9,28.9,19,29.68,10.0,South,12.7,-,N/A,,Clear,190,2013-09-17 16:56:00
10:56 AM,78.1,19.9,11,29.65,10.0,SSW,23.0,27.6,N/A,,Clear,200,2013-09-17 17:56:00
11:56 AM,80.1,18.0,10,29.63,10.0,South,24.2,31.1,N/A,,Clear,190,2013-09-17 18:56:00
12:56 PM,82.0,16.0,8,29.61,10.0,SSW,26.5,34.5,N/A,,Clear,200,2013-09-17 19:56:00
1:56 PM,82.9,12.0,7,29.60,10.0,SSW,23.0,32.2,N/A,,Clear,200,2013-09-17 20:56:00
2:56 PM,84.0,10.0,6,29.56,10.0,South,24.2,34.5,N/A,,Clear,190,2013-09-17 21:56:00
3:56 PM,84.0,8.1,6,29.55,10.0,WSW,15.0,29.9,N/A,,Clear,240,2013-09-17 22:56:00
4:56 PM,82.9,12.0,7,29.55,10.0,SW,17.3,25.3,N/A,,Clear,220,2013-09-17 23:56:00
5:56 PM,81.0,12.9,8,29.56,10.0,SW,16.1,25.3,N/A,,Clear,220,2013-09-18 00:56:00
6:56 PM,77.0,14.0,9,29.58,10.0,SW,13.8,-,N/A,,Clear,220,2013-09-18 01:56:00
7:56 PM,73.0,19.0,13,29.63,10.0,NNW,20.7,27.6,N/A,,Clear,330,2013-09-18 02:56:00
8:56 PM,70.0,19.9,15,29.64,10.0,NNW,23.0,29.9,N/A,,Clear,340,2013-09-18 03:56:00
9:56 PM,66.9,18.0,15,29.67,10.0,NNE,17.3,-,N/A,,Clear,20,2013-09-18 04:56:00
10:56 PM,64.9,15.1,15,29.68,10.0,NNE,24.2,31.1,N/A,,Clear,30,2013-09-18 05:56:00
11:56 PM,64.0,15.1,15,29.71,10.0,North,18.4,26.5,N/A,,Clear,10,2013-09-18 06:56:00